GFSGL_sfc_dewp_336.txt.gz
Dewpoint
33 34 36 37 38 38 38 39 39 40 41 42 43 44 45 48 48 48 47 47 48 47 47 47 48 48 48 47 47 46 43 42 38 39 40 41 41 41 41 42 41 40 40
33 34 36 37 37 38 38 39 39 40 42 42 43 44 44 47 49 48 47 46 47 45 46 47 48 47 47 47 46 44 43 42 39 37 39 39 39 39 38 38 37 37 37
33 33 35 36 37 37 38 39 39 40 41 42 43 43 45 47 50 49 47 46 46 45 45 47 47 47 46 46 45 43 42 41 41 39 37 38 37 36 35 34 34 34 33
33 33 34 35 37 38 38 39 39 40 41 42 43 43 44 47 51 49 48 48 46 46 46 47 47 47 45 44 44 43 42 41 40 38 37 36 36 35 34 32 31 32 31
33 33 33 35 37 38 38 38 39 41 42 43 43 43 44 47 50 50 49 48 46 46 46 46 47 44 42 43 44 43 42 40 39 38 36 35 33 32 32 32 30 30 30
33 33 33 35 36 37 37 38 39 41 42 45 45 44 43 46 45 44 47 47 47 46 45 44 44 40 41 41 42 42 42 40 39 38 37 35 34 34 32 30 29 27 26
33 33 33 35 35 36 37 37 39 40 42 44 44 44 42 45 44 43 42 48 46 46 45 44 43 42 41 43 41 41 40 40 40 39 37 37 35 34 32 30 30 30 28
33 33 33 34 34 35 35 37 39 40 42 43 44 44 42 44 43 42 40 47 47 46 45 45 44 43 43 42 42 41 41 41 41 41 40 39 37 35 33 32 31 29 28
32 32 33 34 34 34 35 37 38 40 41 43 43 43 42 43 42 41 42 47 45 44 44 44 44 43 39 40 40 38 37 37 41 41 40 39 38 36 35 31 29 27 26
31 32 33 33 34 34 34 36 36 40 38 36 39 40 37 43 41 40 43 44 43 38 40 41 37 43 39 40 39 37 36 36 37 36 38 38 38 36 35 34 30 29 29
31 31 32 33 33 34 35 35 36 38 37 37 37 37 37 37 41 41 41 44 41 37 37 37 36 40 39 40 40 38 38 35 37 35 35 35 35 35 34 33 32 32 31
31 31 31 31 32 33 33 34 35 36 36 33 34 34 34 36 36 40 41 42 42 38 37 36 37 39 39 40 37 39 38 35 35 35 34 34 33 33 33 32 30 28 28
31 31 32 32 32 33 33 34 34 34 33 33 33 33 34 33 34 38 40 41 40 38 36 37 38 39 39 39 38 38 34 35 35 34 34 33 34 33 29 27 26 25 24
32 31 31 31 32 33 33 33 33 33 33 33 33 33 33 33 34 33 33 35 36 35 36 36 37 37 38 36 35 35 34 35 35 35 34 28 28 30 29 27 26 27 26
31 31 31 31 31 31 31 32 33 33 34 34 34 34 34 34 35 37 35 34 34 34 34 33 33 33 33 33 33 33 33 34 34 33 30 29 29 30 29 28 28 27 26
27 26 28 31 31 31 31 31 34 35 36 37 38 36 34 36 38 38 38 38 37 37 34 33 33 34 34 34 33 33 33 33 34 33 32 31 29 29 28 27 26 28 26
25 26 24 26 29 30 31 31 31 32 34 36 37 37 37 37 37 38 38 38 37 37 34 34 34 34 34 34 34 34 33 34 34 33 33 32 31 30 28 26 26 27 25
16 23 26 26 27 26 29 31 31 31 31 31 33 34 35 37 37 38 38 37 34 35 34 34 34 34 34 34 34 34 34 33 32 33 33 32 31 30 28 27 26 26 24
15 17 24 26 27 27 28 28 29 30 31 32 32 33 33 35 36 38 38 33 33 34 34 34 34 34 34 34 34 34 34 33 32 32 32 32 31 30 29 28 26 26 23
7 10 10 13 18 25 27 27 27 28 29 30 30 32 32 33 33 33 33 33 33 33 33 34 34 35 34 34 34 34 34 33 32 32 32 31 30 30 30 28 26 23 22
8 7 8 15 16 20 25 26 26 27 27 28 29 31 33 33 32 32 33 33 33 33 33 33 33 34 34 34 34 34 34 33 33 32 32 31 28 28 28 27 25 24 23
7 9 13 21 23 24 24 25 25 26 27 27 27 29 30 31 33 33 33 33 33 33 34 33 34 34 34 34 34 34 34 34 33 33 32 31 28 28 26 24 22 21 20
5 4 5 6 10 18 23 25 25 25 26 26 26 27 28 29 29 31 32 33 33 33 34 33 34 34 34 34 34 35 34 34 34 33 32 31 29 28 25 23 21 20 18
0 1 2 1 2 2 6 13 15 21 26 26 26 26 27 28 28 29 30 31 33 33 33 33 33 34 34 34 34 34 35 35 35 34 33 32 29 28 25 24 22 20 19
-6 -5 -5 -5 -6 -4 -1 0 5 6 12 16 20 24 27 28 28 29 29 30 31 33 33 33 33 33 34 34 34 34 35 33 35 34 33 32 30 28 26 25 22 21 19
-6 -5 -6 -5 -4 -5 -5 -0 2 5 7 10 13 15 17 19 21 25 26 28 30 30 32 33 34 34 34 34 34 34 34 33 33 33 33 32 30 29 27 25 23 21 19

GFSGL_sfc_dewp_339.txt.gz
Dewpoint
34 35 37 38 38 39 39 39 40 40 42 44 44 45 46 48 50 49 48 49 48 48 48 49 49 49 48 47 46 45 45 43 38 39 41 42 41 41 40 40 40 39 39
34 34 36 37 38 38 39 39 40 40 42 44 44 44 45 48 51 49 48 48 47 47 48 49 48 47 47 46 45 43 43 43 40 37 39 39 38 39 38 37 36 37 37
34 34 35 37 37 38 39 39 40 40 42 43 44 44 45 47 51 50 48 47 47 47 48 48 47 47 46 46 44 43 42 40 40 39 37 38 36 36 35 34 33 33 33
34 34 35 36 37 38 39 39 40 40 42 43 44 44 45 46 50 50 49 48 47 47 47 49 48 47 46 45 43 43 42 41 40 38 37 36 35 35 34 32 31 32 31
34 33 34 35 37 38 38 39 40 41 42 44 44 44 45 46 49 50 50 49 47 47 47 47 48 44 41 43 43 43 42 40 39 38 36 35 33 32 32 32 30 30 30
34 33 33 35 36 37 38 38 39 41 43 44 45 45 44 45 44 43 47 49 47 47 46 46 45 40 42 41 41 42 42 40 39 38 37 35 33 34 32 30 29 27 26
34 33 33 35 36 36 37 38 39 41 42 44 44 45 44 44 44 43 42 48 47 47 46 45 43 43 42 44 41 41 40 40 40 39 37 36 34 34 32 30 30 30 27
34 33 33 34 35 35 36 37 39 40 42 43 44 45 45 44 43 43 40 48 47 47 46 46 45 43 44 43 43 42 42 41 40 40 39 38 37 35 33 32 31 29 28
33 33 33 34 34 35 36 36 38 40 42 43 43 44 44 43 42 41 42 47 45 45 45 45 45 44 40 40 42 40 38 38 40 40 40 40 38 36 35 32 30 27 26
32 32 33 34 34 35 35 36 36 39 40 37 40 41 38 43 41 40 42 45 44 39 41 42 36 44 39 40 42 39 37 37 37 36 37 38 37 36 34 34 30 29 29
31 32 33 33 34 35 35 35 37 38 37 38 37 37 38 39 42 40 41 44 43 38 38 37 37 40 40 40 40 40 39 37 38 35 35 35 35 35 34 34 32 32 31
32 32 32 33 33 33 33 35 36 37 36 34 34 34 34 37 36 40 40 41 42 39 38 37 37 39 40 40 39 40 39 37 36 35 35 34 34 33 34 33 32 31 30
32 32 32 33 33 33 34 34 35 34 34 33 33 33 34 34 35 38 38 40 40 37 35 38 38 39 40 39 39 38 35 36 35 35 35 34 35 35 32 29 28 27 26
32 31 31 31 32 33 33 33 34 34 33 33 33 33 34 34 34 34 34 35 36 35 36 36 37 37 38 36 35 36 35 36 36 36 35 34 32 31 31 29 28 28 27
32 32 31 31 31 31 31 33 33 34 34 33 33 33 33 34 35 36 35 33 34 35 34 33 33 33 34 34 33 34 33 34 35 34 32 31 32 32 31 31 31 29 29
27 27 28 31 32 31 31 32 33 34 35 36 37 36 33 36 38 38 38 38 38 36 35 33 33 33 34 34 34 33 33 34 34 34 33 33 32 32 31 30 31 31 30
26 26 25 26 28 28 30 32 31 33 34 35 36 36 37 37 37 38 38 38 38 37 34 34 34 34 35 34 34 34 34 34 35 34 34 33 33 32 30 29 30 31 30
25 25 26 26 27 27 27 28 29 31 32 32 34 35 35 35 36 37 38 37 34 35 33 34 34 34 34 34 34 34 34 33 34 34 34 33 33 32 30 30 30 31 31
17 17 18 20 24 27 27 27 28 28 29 30 33 34 33 35 36 37 38 33 33 33 33 33 33 33 33 33 34 34 34 34 34 33 33 33 33 32 31 31 31 31 30
9 11 11 14 15 18 20 26 26 27 27 28 29 31 33 33 33 33 33 33 33 33 33 33 33 33 33 33 33 34 34 34 33 34 34 34 33 33 33 32 31 29 28
10 11 9 18 24 25 25 25 25 26 26 26 27 29 29 32 33 33 33 33 33 33 33 33 33 33 33 34 34 33 34 34 34 33 33 33 33 32 33 33 31 30 29
7 6 6 6 16 22 24 24 24 25 25 25 26 27 28 29 29 30 32 33 33 33 33 33 33 33 33 33 34 33 33 34 34 34 33 33 33 32 32 32 31 30 28
5 5 4 4 6 5 8 16 15 21 23 26 25 26 26 28 28 28 29 31 33 33 33 33 33 33 33 33 34 34 34 34 34 34 33 33 33 31 31 30 29 27 26
1 2 2 -0 -0 -3 -3 -2 1 5 10 13 18 21 25 26 27 28 29 29 30 31 33 33 33 33 33 33 33 34 34 34 34 34 34 33 33 31 30 29 27 26 25
-7 -5 -4 -6 -9 -7 -6 -5 -1 -3 1 6 8 11 13 15 17 21 23 26 29 30 30 32 33 33 33 33 34 34 34 33 34 34 34 33 32 32 30 28 27 26 24
-7 -6 -7 -6 -6 -7 -7 -3 -2 1 1 5 6 7 9 11 13 15 17 18 20 21 21 28 31 31 33 33 34 33 33 33 33 33 32 32 32 32 30 28 27 26 24

GFSGL_sfc_dewp_342.txt.gz
Dewpoint
35 35 37 39 39 40 40 41 41 42 43 45 45 46 48 50 50 50 50 50 49 49 50 50 51 50 48 48 49 47 45 43 38 39 41 42 41 40 41 41 41 40 41
35 35 37 37 39 39 40 40 41 41 43 45 45 46 48 50 51 50 49 49 48 49 50 50 49 47 47 46 46 46 44 43 40 38 39 38 38 38 38 38 37 37 38
35 35 36 37 38 39 39 40 41 41 43 45 45 45 47 50 51 50 49 49 49 49 49 49 48 48 46 45 45 45 45 42 42 39 37 37 36 36 35 35 34 34 35
35 35 36 37 37 38 39 40 41 41 43 44 45 46 46 48 51 51 49 49 49 49 49 49 49 48 47 45 44 44 44 42 40 38 36 36 35 35 34 33 31 33 33
36 36 36 37 37 38 39 41 41 41 42 44 45 45 46 47 50 51 50 49 49 48 48 49 48 45 42 44 44 43 43 41 40 37 36 35 33 32 32 33 31 31 31
36 36 35 36 36 38 39 40 40 41 42 45 46 45 46 45 44 44 48 50 49 48 47 48 47 40 42 41 41 42 43 42 40 39 38 35 34 34 32 31 30 30 29
37 37 35 36 36 38 38 39 39 40 42 44 45 45 45 46 43 43 42 49 49 48 47 47 45 45 42 44 41 40 39 40 41 41 39 37 35 34 33 31 31 31 28
36 36 35 36 37 38 39 38 39 40 42 44 45 45 45 45 42 43 40 49 50 48 48 48 46 45 46 45 43 42 42 41 41 41 41 39 37 36 34 33 31 30 29
36 35 35 36 36 37 37 38 38 40 42 44 44 45 45 46 41 41 42 47 48 48 47 48 46 44 41 41 43 41 39 39 40 40 40 39 39 37 35 32 30 28 26
35 36 36 37 36 36 38 39 40 41 42 41 43 44 40 45 41 41 42 45 45 44 45 45 37 45 39 41 43 40 38 38 38 37 38 39 37 36 35 34 31 30 28
35 36 37 37 38 36 37 38 40 40 40 40 38 39 40 40 43 40 40 45 44 40 39 37 38 41 40 41 42 40 40 37 38 36 35 36 35 35 34 35 32 33 31
34 34 35 36 35 37 38 38 37 39 38 36 35 36 36 39 37 40 40 41 43 39 38 39 38 40 40 41 40 40 39 37 37 36 35 34 34 34 34 34 33 32 32
34 33 34 34 34 35 36 35 36 36 36 35 34 35 36 34 37 37 39 40 40 38 37 38 39 39 40 40 40 39 36 37 36 35 35 35 35 35 34 32 31 29 29
33 33 33 34 34 34 35 35 37 37 35 34 34 34 35 35 36 35 34 36 36 36 36 36 37 38 38 37 35 37 36 37 37 37 36 35 34 33 32 32 30 29 29
33 33 33 33 33 33 33 35 35 36 35 34 34 34 34 35 35 37 36 34 34 35 34 34 33 34 34 34 34 34 34 34 35 34 34 33 33 32 32 32 32 30 30
31 32 32 33 33 33 33 34 34 34 35 36 37 36 34 36 38 38 39 38 38 37 34 33 34 34 34 35 35 34 34 34 35 34 34 34 33 32 32 31 32 31 32
30 30 29 30 31 32 33 35 34 35 35 35 35 35 36 36 37 37 38 38 38 37 34 34 34 34 34 34 34 34 35 35 35 34 34 34 34 33 32 31 32 32 32
28 27 28 28 29 29 30 30 32 33 33 34 34 35 35 35 36 37 38 37 34 35 33 33 33 33 33 33 33 34 34 33 34 34 34 34 34 33 32 32 32 32 32
26 26 28 28 29 28 28 28 29 30 30 31 34 34 33 35 36 37 38 34 33 33 33 33 33 33 33 33 34 33 34 34 34 34 34 34 34 33 33 32 32 32 32
20 18 23 27 27 28 28 28 27 27 28 28 30 31 33 34 33 33 33 33 33 33 33 33 33 33 33 33 33 33 33 34 33 33 34 34 34 34 34 33 32 32 32
22 22 21 26 26 26 27 27 26 26 26 26 27 29 28 32 31 33 33 33 33 33 33 33 33 33 33 33 33 33 33 33 33 34 34 33 33 32 34 34 33 33 32
18 19 20 20 22 24 25 26 26 25 25 25 26 27 28 29 30 30 32 33 33 33 33 33 33 33 33 33 33 33 33 33 34 33 33 33 33 33 33 33 33 33 32
15 14 14 14 15 14 19 19 19 20 22 23 24 26 27 28 28 28 29 32 33 33 33 33 33 33 33 33 33 34 33 33 34 34 33 33 33 33 33 33 32 32 32
12 12 12 11 11 12 13 13 13 11 13 16 17 18 20 21 21 22 24 27 28 31 32 33 33 33 33 33 33 33 33 34 34 34 34 33 33 33 32 32 32 32 32
9 9 9 9 10 9 10 10 11 11 12 13 14 14 15 16 17 18 21 21 22 23 24 24 29 32 33 33 33 34 34 33 33 33 33 33 33 33 33 32 32 30 30
7 7 7 8 8 8 9 9 9 9 9 10 11 12 12 13 14 15 16 17 17 18 20 22 24 25 26 28 31 32 32 32 33 33 33 33 32 32 32 32 31 30 28

GFSGL_sfc_dewp_345.txt.gz
Dewpoint
37 36 38 38 38 40 41 42 42 42 43 45 46 47 49 50 50 50 50 50 50 50 51 50 51 50 49 49 50 47 46 43 38 40 41 41 41 41 41 41 41 41 41
37 35 38 37 38 39 40 41 42 42 43 45 45 46 49 50 49 50 49 49 49 50 51 51 49 48 47 48 48 45 44 43 41 38 39 38 38 39 39 38 37 38 38
36 36 37 38 38 38 40 41 42 42 43 45 45 45 48 50 50 50 50 50 50 50 51 49 49 47 46 47 47 45 44 42 41 39 37 37 37 36 35 35 35 36 34
37 36 38 38 38 38 39 41 42 42 43 45 45 45 47 49 51 50 50 50 50 50 51 51 49 48 46 45 46 45 43 42 40 39 37 36 35 35 35 33 32 34 33
37 37 37 39 38 38 40 41 42 42 42 44 45 46 47 47 50 51 50 50 50 49 50 49 50 46 42 43 45 45 44 41 39 37 36 35 33 32 32 33 31 31 32
37 37 36 37 38 39 40 41 41 42 42 44 45 46 46 46 45 44 48 50 49 49 48 49 47 39 42 41 42 42 43 41 39 38 37 35 34 34 33 32 31 30 29
38 38 37 37 38 39 39 40 40 41 42 43 45 46 46 46 43 43 42 50 50 49 48 48 46 45 42 44 41 41 40 40 41 40 39 37 34 34 33 32 32 32 30
39 38 37 38 38 39 40 38 39 40 41 43 45 45 45 45 43 42 41 49 50 50 49 48 46 45 45 43 43 43 42 42 42 41 41 39 38 35 34 34 32 30 30
38 38 37 38 38 39 39 38 38 40 41 43 44 45 45 45 41 40 42 47 48 49 49 48 47 46 41 41 43 41 39 39 40 40 41 40 38 37 36 32 31 29 27
38 38 38 38 38 38 39 39 40 41 41 43 44 45 40 45 40 40 41 45 45 44 45 46 36 44 40 41 43 39 37 38 37 37 37 38 37 36 35 35 32 32 29
37 37 37 38 38 38 39 40 40 41 40 40 39 40 40 41 43 41 41 42 43 38 39 37 38 40 40 41 42 40 40 37 38 36 35 35 35 35 34 35 33 34 31
36 36 36 37 37 38 38 38 38 39 38 36 36 36 36 38 37 41 40 41 42 40 38 38 38 40 40 41 40 41 39 37 36 35 35 34 34 34 34 34 33 32 32
34 33 34 34 34 36 37 36 36 37 36 35 34 35 35 34 36 38 39 39 39 38 36 38 39 40 40 40 40 39 36 37 36 35 35 35 35 34 35 33 32 31 30
33 34 34 34 34 35 35 35 36 36 35 34 33 34 34 34 35 36 35 36 35 36 36 35 37 38 39 38 35 37 36 37 37 37 36 36 34 33 33 33 32 30 31
33 33 34 34 34 34 34 35 34 35 35 34 34 34 34 34 34 37 36 34 34 34 34 34 33 33 34 34 35 35 35 35 35 35 34 34 34 33 33 32 33 31 31
32 33 33 33 33 33 33 34 34 35 35 36 37 36 33 36 38 38 38 38 38 37 34 33 33 33 34 34 34 34 34 34 35 35 35 34 34 33 32 32 32 31 31
32 32 33 33 33 34 34 34 33 34 35 35 35 35 35 35 36 37 38 38 38 37 33 33 33 33 33 33 33 33 33 34 36 34 35 34 34 33 32 31 32 31 31
31 30 31 31 31 32 32 32 34 34 33 33 34 35 35 35 35 36 38 37 34 34 33 33 33 33 33 33 33 34 33 33 33 34 34 34 34 33 33 32 32 32 32
29 30 30 30 30 29 30 30 31 30 30 32 33 34 33 35 36 37 38 33 33 33 33 33 33 33 33 33 33 33 33 33 33 33 33 34 33 34 33 33 33 32 32
24 26 28 29 29 29 29 28 27 28 28 28 29 29 32 33 32 33 33 33 33 33 33 33 33 33 33 33 33 33 33 33 33 33 33 33 33 33 33 33 33 32 32
25 26 26 28 28 28 28 28 27 27 27 26 27 29 27 30 31 32 32 32 32 33 33 33 33 33 33 33 33 33 33 33 33 33 33 33 33 32 33 33 33 33 33
24 25 25 26 26 26 26 26 26 25 25 26 27 26 25 27 27 29 29 31 32 32 33 33 33 33 33 33 33 33 33 33 33 33 33 33 33 32 32 32 32 32 32
20 20 19 20 20 19 22 22 22 23 23 24 24 25 26 26 26 27 27 28 30 31 32 32 32 33 33 33 33 33 32 33 33 33 33 33 32 32 32 32 32 32 32
18 18 17 16 16 17 17 16 15 13 16 18 19 19 19 19 20 20 21 24 25 25 28 26 27 30 31 32 33 33 33 33 33 33 33 33 33 33 32 32 32 32 32
15 15 15 15 14 14 14 14 14 14 15 15 16 16 16 16 16 17 18 18 16 18 18 19 21 23 25 25 29 31 32 32 33 33 33 33 32 33 32 32 32 32 32
12 12 12 13 12 12 12 12 12 12 12 13 13 13 13 13 14 14 14 13 13 13 14 16 16 15 15 20 24 21 22 25 27 30 32 32 32 32 32 32 32 32 31